Weather History for Waseca, MN

Change the Weather History Date:

Tuesday, February 12, 2013

  Actual Average Record
Temperature  
Mean Temperature 26 °F -  
Max Temperature 35 °F 24 °F 56 °F (1977)
Min Temperature 17 °F 5 °F -26 °F (1988)
Degree Days  
Heating Degree Days 39    
Moisture  
Dew Point 21 °F    
Average Humidity 83    
Maximum Humidity 93    
Minimum Humidity 69    
Precipitation  
Precipitation 0.03 in - - ()
Sea Level Pressure  
Sea Level Pressure 29.94 in    
Wind  
Wind Speed 10 mph (SW)    
Max Wind Speed 18 mph    
Max Gust Speed 20 mph    
Visibility 10 miles    
Events Snow    
Averages and records for this station are not official NWS values.
T = Trace of Precipitation, MM = Missing Value Source: NWS Daily Summary

Daily Weather History Graph

Daily Weather History Graph

Search for Another Location

Airport:

Trip Planner

Search our weather history database for the weather conditions in past years. The results will help you decide how hot, cold, wet, or windy it might be!

Date:

Astronomy

Feb. 12, 2013 Rise Set
Actual Time 7:17 AM CST 5:40 PM CST
Civil Twilight 6:47 AM CST 6:09 PM CST
Nautical Twilight 6:13 AM CST 6:43 PM CST
Astronomical Twilight 5:40 AM CST 7:17 PM CST
Moon 8:07 AM CST (2/12) 8:50 PM CST (2/12)
Length of Visible Light 11h 22m
Length of Day
10h 22m
Waxing Crescent, 7% of the Moon is Illuminated
Feb 12
Waxing Crescent
Feb 17
First Quarter
Feb 25
Full
Mar 4
Last Quarter
Mar 11
New

Hourly Weather History & Observations

Time (CST) Temp. Windchill Dew Point Humidity Pressure Visibility Wind Dir Wind Speed Gust Speed Precip Events Conditions
12:15 AM 19.4 °F 10.4 °F 15.8 °F 86% 30.06 in 10.0 mi West 6.9 mph - N/A   Mostly Cloudy
12:35 AM 19.4 °F 9.5 °F 15.8 °F 86% 30.06 in 10.0 mi West 8.1 mph - N/A Snow Light Snow
12:55 AM 19.4 °F 8.6 °F 15.8 °F 86% 30.07 in 10.0 mi West 9.2 mph - N/A Snow Light Snow
1:15 AM 19.4 °F 7.2 °F 15.8 °F 86% 30.07 in 10.0 mi WSW 11.5 mph - N/A Snow Light Snow
1:35 AM 19.4 °F 6.6 °F 15.8 °F 86% 30.06 in 10.0 mi West 12.7 mph - N/A   Overcast
1:55 AM 19.4 °F 6.0 °F 15.8 °F 86% 30.07 in 10.0 mi West 13.8 mph - N/A   Overcast
2:15 AM 19.4 °F 7.2 °F 15.8 °F 86% 30.07 in 10.0 mi WSW 11.5 mph - N/A   Overcast
2:35 AM 19.4 °F 7.9 °F 15.8 °F 86% 30.07 in 10.0 mi WSW 10.4 mph - N/A   Overcast
2:55 AM 19.4 °F 8.6 °F 15.8 °F 86% 30.07 in 10.0 mi WSW 9.2 mph - N/A   Overcast
3:15 AM 19.4 °F 9.5 °F 15.8 °F 86% 30.06 in 10.0 mi SW 8.1 mph - N/A   Overcast
3:35 AM 19.4 °F 9.5 °F 15.8 °F 86% 30.05 in 10.0 mi SW 8.1 mph - N/A   Overcast
3:55 AM 19.4 °F 10.4 °F 14.0 °F 80% 30.05 in 10.0 mi SW 6.9 mph - N/A   Overcast
4:15 AM 19.4 °F 11.5 °F 15.8 °F 86% 30.04 in 10.0 mi SW 5.8 mph - N/A   Overcast
4:35 AM 19.4 °F 9.5 °F 15.8 °F 86% 30.04 in 10.0 mi SW 8.1 mph - N/A   Overcast
4:55 AM 19.4 °F 8.6 °F 15.8 °F 86% 30.03 in 10.0 mi SW 9.2 mph - N/A   Overcast
5:15 AM 21.2 °F 12.6 °F 17.6 °F 86% 30.03 in 10.0 mi SW 6.9 mph - N/A   Overcast
5:35 AM 21.2 °F 11.7 °F 17.6 °F 86% 30.02 in 10.0 mi SSW 8.1 mph - N/A   Overcast
5:55 AM 19.4 °F 12.8 °F 15.8 °F 86% 30.01 in 10.0 mi South 4.6 mph - N/A   Overcast
6:15 AM 19.4 °F 10.4 °F 15.8 °F 86% 30.00 in 10.0 mi South 6.9 mph - N/A   Mostly Cloudy
6:35 AM 19.4 °F 11.5 °F 15.8 °F 86% 30.00 in 10.0 mi South 5.8 mph - N/A   Scattered Clouds
6:55 AM 17.6 °F - 14.0 °F 86% 30.00 in 10.0 mi Calm Calm - N/A   Clear
7:14 AM 17.6 °F 9.3 °F 14.0 °F 86% 30.00 in 10.0 mi South 5.8 mph - N/A   Clear
7:35 AM 17.6 °F 7.3 °F 14.0 °F 86% 30.01 in 10.0 mi South 8.1 mph - N/A   Clear
7:55 AM 19.4 °F 7.9 °F 15.8 °F 86% 30.01 in 10.0 mi South 10.4 mph - N/A   Clear
8:15 AM 19.4 °F 6.6 °F 15.8 °F 86% 30.01 in 10.0 mi South 12.7 mph - N/A   Clear
8:35 AM 19.4 °F 7.2 °F 17.6 °F 93% 30.01 in 10.0 mi South 11.5 mph - N/A   Clear
8:55 AM 21.2 °F 8.9 °F 17.6 °F 86% 30.00 in 10.0 mi South 12.7 mph - N/A   Clear
9:15 AM 23.0 °F 10.1 °F 17.6 °F 80% 29.98 in 10.0 mi South 15.0 mph - N/A   Scattered Clouds
9:35 AM 24.8 °F 12.9 °F 19.4 °F 80% 29.97 in 10.0 mi South 13.8 mph - N/A   Mostly Cloudy
9:55 AM 26.6 °F 14.3 °F 21.2 °F 80% 29.97 in 10.0 mi SSW 16.1 mph 19.6 mph N/A   Overcast
10:15 AM 26.6 °F 14.7 °F 21.2 °F 80% 29.96 in 10.0 mi South 15.0 mph - N/A   Scattered Clouds
10:35 AM 28.4 °F 17.5 °F 21.2 °F 74% 29.96 in 10.0 mi SSW 13.8 mph - N/A   Clear
10:55 AM 30.2 °F 19.3 °F 23.0 °F 75% 29.95 in 10.0 mi SSW 15.0 mph - 0.01 in   Clear
11:15 AM 30.2 °F 20.2 °F 23.0 °F 75% 29.94 in 10.0 mi SSW 12.7 mph - 0.02 in   Scattered Clouds
11:35 AM 32.0 °F 21.6 °F 24.8 °F 75% 29.93 in 10.0 mi South 15.0 mph - 0.02 in   Scattered Clouds
11:55 AM 32.0 °F 22.1 °F 24.8 °F 75% 29.93 in 10.0 mi SSW 13.8 mph - 0.02 in   Clear
12:15 PM 32.0 °F 23.6 °F 24.8 °F 75% 29.92 in 10.0 mi SSW 10.4 mph - N/A   Clear
12:36 PM 32.0 °F 24.2 °F 23.0 °F 69% 29.91 in 10.0 mi SSW 9.2 mph - N/A   Clear
12:55 PM 32.0 °F 23.6 °F 26.6 °F 80% 29.91 in 10.0 mi SSW 10.4 mph - N/A   Clear
1:15 PM 33.8 °F 24.8 °F 26.6 °F 75% 29.90 in 10.0 mi SSW 12.7 mph - N/A   Clear
1:35 PM 33.8 °F 23.2 °F 26.6 °F 75% 29.90 in 10.0 mi SSW 17.3 mph - N/A   Clear
1:55 PM 33.8 °F 24.3 °F 26.6 °F 75% 29.89 in 10.0 mi SSW 13.8 mph - N/A   Clear
2:15 PM 33.8 °F 23.5 °F 26.6 °F 75% 29.88 in 10.0 mi SSW 16.1 mph - N/A   Clear
2:35 PM 33.8 °F 22.8 °F 26.6 °F 75% 29.87 in 10.0 mi South 18.4 mph - N/A   Clear
2:55 PM 33.8 °F 23.9 °F 28.4 °F 81% 29.87 in 10.0 mi SSW 15.0 mph 18.4 mph N/A   Clear
3:15 PM 35.6 °F 27.1 °F 30.2 °F 81% 29.87 in 10.0 mi SSW 12.7 mph - N/A   Clear
3:36 PM 35.6 °F 27.1 °F 30.2 °F 81% 29.86 in 10.0 mi SW 12.7 mph - N/A   Clear
3:55 PM 35.6 °F 27.5 °F 28.4 °F 75% 29.86 in 10.0 mi SW 11.5 mph 17.3 mph N/A   Clear
4:15 PM 33.8 °F 25.8 °F 26.6 °F 75% 29.86 in 10.0 mi SW 10.4 mph - N/A   Clear
4:35 PM 33.8 °F 25.3 °F 26.6 °F 75% 29.86 in 10.0 mi SW 11.5 mph - N/A   Clear
4:55 PM 33.8 °F 25.3 °F 26.6 °F 75% 29.86 in 10.0 mi SW 11.5 mph - N/A   Clear
5:15 PM 32.0 °F 24.2 °F 26.6 °F 80% 29.86 in 10.0 mi WSW 9.2 mph - N/A   Clear
5:35 PM 32.0 °F 24.8 °F 26.6 °F 80% 29.87 in 10.0 mi WSW 8.1 mph - N/A   Clear
5:55 PM 32.0 °F 25.6 °F 26.6 °F 80% 29.87 in 10.0 mi WSW 6.9 mph - N/A   Clear
6:15 PM 32.0 °F 24.2 °F 26.6 °F 80% 29.87 in 10.0 mi West 9.2 mph - N/A   Clear
6:36 PM 30.2 °F 21.9 °F 24.8 °F 80% 29.87 in 10.0 mi West 9.2 mph - N/A   Clear
6:56 PM 30.2 °F 21.3 °F 24.8 °F 80% 29.88 in 10.0 mi West 10.4 mph - N/A   Clear
7:15 PM 30.2 °F 23.4 °F 24.8 °F 80% 29.86 in 10.0 mi West 6.9 mph - N/A   Clear
7:35 PM 26.6 °F 19.1 °F 23.0 °F 86% 29.86 in 10.0 mi West 6.9 mph - N/A   Clear
7:55 PM 24.8 °F 16.1 °F 21.2 °F 86% 29.86 in 10.0 mi West 8.1 mph - N/A   Clear
8:15 PM 24.8 °F 17.9 °F 21.2 °F 86% 29.86 in 10.0 mi West 5.8 mph - N/A   Clear
8:35 PM 23.0 °F 15.8 °F 19.4 °F 86% 29.85 in 10.0 mi WSW 5.8 mph - N/A   Clear
8:55 PM 23.0 °F 17.0 °F 19.4 °F 86% 29.85 in 10.0 mi WSW 4.6 mph - N/A   Clear
9:15 PM 21.2 °F 12.6 °F 19.4 °F 93% 29.84 in 10.0 mi WSW 6.9 mph - N/A   Clear
9:35 PM 21.2 °F 11.7 °F 19.4 °F 93% 29.84 in 10.0 mi WSW 8.1 mph - N/A   Clear
9:55 PM 23.0 °F 17.0 °F 19.4 °F 86% 29.84 in 10.0 mi WSW 4.6 mph - N/A   Clear
10:15 PM 21.2 °F 14.9 °F 19.4 °F 93% 29.84 in 10.0 mi West 4.6 mph - N/A   Clear
10:35 PM 21.2 °F 11.7 °F 19.4 °F 93% 29.84 in 10.0 mi West 8.1 mph - N/A   Clear
10:55 PM 21.2 °F 11.7 °F 19.4 °F 93% 29.85 in 10.0 mi West 8.1 mph - N/A   Clear
11:15 PM 21.2 °F 12.6 °F 19.4 °F 93% 29.84 in 10.0 mi West 6.9 mph - N/A   Scattered Clouds
11:35 PM 21.2 °F 16.4 °F 19.4 °F 93% 29.83 in 10.0 mi WSW 3.5 mph - N/A   Clear
11:55 PM 19.4 °F 11.5 °F 17.6 °F 93% 29.83 in 10.0 mi WSW 5.8 mph - N/A   Clear